Location: Bailleul
(50.3375°N, 2.8513°E)
Time: 20:44:15
(UTC+00:00)

SPOT 5 - Pass Details

Date: 19 April 2021
Orbit: 624 x 814 km, 98.2° (Epoch: 18 May)

Event Time Altitude Azimuth Distance (km) Brightness Sun altitude
Exits shadow 20:28:31 22° 110° (ESE) 1,479 3.9 -14.5°
Maximum altitude 20:30:42 33° 64° (ENE) 1,157 3.7 -14.8°
Drops below altitude 10° 20:34:58 10° 1° (N) 2,202 5.9 -15.3°
Sets 20:37:28 0° 352° (N) 3,160 7.0 -15.6°
